| time (UTC) | temp F | wind direction | speed MPH | gust MPH | rain 1hr in | rain 24hr in | rain mn in | humidity % | barometer mb |
| 20260504151016 | 75 | 294 | 4.0 | 10.0 | 0.00 | 0.00 | 0.00 | 30 | 990.0 |
| 20260504150516 | 75 | 303 | 5.0 | 7.0 | 0.00 | 0.00 | 0.00 | 30 | 990.0 |
| 20260504140401 | 75 | 326 | 4.0 | 7.0 | 0.00 | 0.00 | 0.00 | 32 | 990.7 |
| 20260504110353 | 71 | 331 | 7.0 | 14.0 | 0.00 | 0.00 | 0.00 | 37 | 992.4 |
| 20260504081841 | 66 | 314 | 2.0 | 5.0 | 0.00 | 0.00 | 0.00 | 47 | 993.8 |
| 20260504081344 | 65 | 232 | 2.0 | 6.0 | 0.00 | 0.00 | 0.00 | 49 | 993.9 |
| 20260504080841 | 64 | 64 | 2.0 | 3.0 | 0.00 | 0.00 | 0.00 | 53 | 993.9 |
| 20260504080341 | 64 | 114 | 3.0 | 6.0 | 0.00 | 0.00 | 0.00 | 51 | 993.8 |
| 20260504070338 | 58 | 80 | 7.0 | 9.0 | 0.00 | 0.00 | 0.00 | 61 | 993.8 |
| 20260504050329 | 50 | 108 | 8.0 | 12.0 | 0.00 | 0.00 | 0.00 | 74 | 993.7 |
| 20260504045829 | 49 | 85 | 8.0 | 12.0 | 0.00 | 0.00 | 0.00 | 74 | 993.7 |
| 20260504045330 | 49 | 103 | 8.0 | 13.0 | 0.00 | 0.00 | 0.00 | 74 | 993.6 |
| 20260504044829 | 49 | 94 | 7.0 | 12.0 | 0.00 | 0.00 | 0.00 | 74 | 993.4 |
| 20260504044328 | 49 | 96 | 7.0 | 9.0 | 0.00 | 0.00 | 0.00 | 74 | 993.4 |
| 20260504042829 | 49 | 115 | 6.0 | 11.0 | 0.00 | 0.00 | 0.00 | 74 | 993.4 |
| 20260504042327 | 49 | 117 | 5.0 | 10.0 | 0.00 | 0.00 | 0.00 | 75 | 993.4 |
| 20260504041828 | 49 | 73 | 5.0 | 9.0 | 0.00 | 0.00 | 0.00 | 75 | 993.3 |
| 20260504041328 | 48 | 74 | 5.0 | 7.0 | 0.00 | 0.00 | 0.00 | 75 | 993.2 |
| 20260504040826 | 48 | 125 | 5.0 | 6.0 | 0.00 | 0.00 | 0.00 | 75 | 993.2 |
| 20260504035826 | 48 | 153 | 5.0 | 9.0 | 0.00 | 0.00 | 0.00 | 75 | 993.3 |
| 20260504035325 | 48 | 105 | 4.0 | 9.0 | 0.00 | 0.00 | 0.00 | 76 | 993.3 |
| 20260504034826 | 48 | 124 | 4.0 | 6.0 | 0.00 | 0.00 | 0.00 | 76 | 993.1 |
| 20260504034326 | 48 | 114 | 6.0 | 9.0 | 0.00 | 0.00 | 0.00 | 76 | 993.2 |
| 20260504033826 | 47 | 117 | 6.0 | 10.0 | 0.00 | 0.00 | 0.00 | 77 | 993.1 |
| 20260504033324 | 47 | 122 | 7.0 | 11.0 | 0.00 | 0.00 | 0.00 | 77 | 992.9 |
| 20260504032825 | 47 | 105 | 7.0 | 10.0 | 0.00 | 0.00 | 0.00 | 77 | 992.8 |
| 20260504032325 | 47 | 91 | 8.0 | 11.0 | 0.00 | 0.00 | 0.00 | 78 | 993.0 |
| 20260504031823 | 47 | 86 | 7.0 | 12.0 | 0.00 | 0.00 | 0.00 | 78 | 992.9 |
| 20260504031324 | 47 | 113 | 8.0 | 11.0 | 0.00 | 0.00 | 0.00 | 78 | 993.0 |
| 20260504030823 | 47 | 98 | 8.0 | 12.0 | 0.00 | 0.00 | 0.00 | 78 | 993.0 |
| 20260504030324 | 47 | 101 | 7.0 | 11.0 | 0.00 | 0.00 | 0.00 | 78 | 993.0 |
| 20260504025824 | 47 | 94 | 7.0 | 11.0 | 0.00 | 0.00 | 0.00 | 77 | 992.9 |
| 20260504024823 | 47 | 101 | 7.0 | 12.0 | 0.00 | 0.00 | 0.00 | 77 | 992.9 |
| 20260504023821 | 47 | 131 | 6.0 | 9.0 | 0.00 | 0.00 | 0.00 | 77 | 992.9 |
| 20260504022821 | 47 | 100 | 4.0 | 8.0 | 0.00 | 0.00 | 0.00 | 77 | 993.1 |
| 20260504021821 | 48 | 102 | 2.0 | 4.0 | 0.00 | 0.00 | 0.00 | 76 | 993.0 |
| 20260504021321 | 48 | 96 | 1.0 | 3.0 | 0.00 | 0.00 | 0.00 | 76 | 993.1 |
| 20260504020821 | 48 | 114 | 2.0 | 3.0 | 0.00 | 0.00 | 0.00 | 76 | 993.0 |
| 20260504020319 | 48 | 116 | 2.0 | 7.0 | 0.00 | 0.00 | 0.00 | 75 | 993.1 |
| 20260504015819 | 48 | 116 | 1.0 | 2.0 | 0.00 | 0.00 | 0.00 | 75 | 993.0 |
| 20260504015319 | 48 | 117 | 0.0 | 1.0 | 0.00 | 0.00 | 0.00 | 75 | 993.1 |
| 20260504014818 | 48 | 123 | 1.0 | 1.0 | 0.00 | 0.00 | 0.00 | 75 | 993.1 |
| 20260504014318 | 48 | 122 | 1.0 | 3.0 | 0.00 | 0.00 | 0.00 | 75 | 993.1 |
| 20260504013821 | 48 | 91 | 2.0 | 4.0 | 0.00 | 0.00 | 0.00 | 75 | 993.1 |
| 20260504013318 | 49 | 132 | 2.0 | 3.0 | 0.00 | 0.00 | 0.00 | 74 | 993.1 |
| 20260504012317 | 49 | 115 | 2.0 | 4.0 | 0.00 | 0.00 | 0.00 | 73 | 993.1 |
| 20260504011818 | 49 | 146 | 2.0 | 4.0 | 0.00 | 0.00 | 0.00 | 73 | 993.0 |
| 20260504011317 | 49 | 108 | 2.0 | 3.0 | 0.00 | 0.00 | 0.00 | 73 | 993.0 |
| 20260504010817 | 49 | 108 | 3.0 | 4.0 | 0.00 | 0.00 | 0.00 | 73 | 993.1 |
| 20260504010316 | 49 | 108 | 4.0 | 6.0 | 0.00 | 0.00 | 0.00 | 73 | 993.1 |
| 20260504005817 | 49 | 89 | 5.0 | 8.0 | 0.00 | 0.00 | 0.00 | 73 | 993.2 |
| 20260504005317 | 49 | 100 | 4.0 | 6.0 | 0.00 | 0.00 | 0.00 | 73 | 993.0 |
| 20260504004816 | 49 | 117 | 4.0 | 6.0 | 0.00 | 0.00 | 0.00 | 73 | 993.0 |
| 20260504004315 | 49 | 107 | 4.0 | 5.0 | 0.00 | 0.00 | 0.00 | 73 | 993.2 |
| 20260504003815 | 49 | 100 | 4.0 | 7.0 | 0.00 | 0.00 | 0.00 | 73 | 993.1 |
| 20260504003314 | 50 | 100 | 4.0 | 6.0 | 0.00 | 0.00 | 0.00 | 72 | 993.1 |
| 20260504002815 | 50 | 98 | 4.0 | 6.0 | 0.00 | 0.00 | 0.00 | 72 | 993.1 |
| 20260504002316 | 50 | 96 | 4.0 | 6.0 | 0.00 | 0.00 | 0.00 | 72 | 993.1 |
| 20260504001817 | 50 | 103 | 4.0 | 6.0 | 0.00 | 0.00 | 0.00 | 72 | 993.1 |
| 20260504001313 | 50 | 105 | 2.0 | 5.0 | 0.00 | 0.00 | 0.00 | 72 | 993.2 |
| 20260504000814 | 50 | 117 | 2.0 | 4.0 | 0.00 | 0.00 | 0.00 | 72 | 993.2 |
| 20260504000313 | 50 | 111 | 3.0 | 4.0 | 0.00 | 0.00 | 0.00 | 72 | 993.2 |
| 20260503235312 | 50 | 98 | 2.0 | 3.0 | 0.00 | 0.00 | 0.00 | 71 | 993.2 |
| 20260503234812 | 50 | 99 | 3.0 | 4.0 | 0.00 | 0.00 | 0.00 | 71 | 993.3 |
| 20260503234313 | 50 | 90 | 3.0 | 4.0 | 0.00 | 0.00 | 0.00 | 71 | 993.3 |
| 20260503233812 | 50 | 90 | 2.0 | 4.0 | 0.00 | 0.00 | 0.00 | 70 | 993.2 |
| 20260503233311 | 51 | 106 | 3.0 | 4.0 | 0.00 | 0.00 | 0.00 | 70 | 993.3 |
| 20260503232811 | 51 | 102 | 3.0 | 4.0 | 0.00 | 0.00 | 0.00 | 69 | 993.2 |
| 20260503232310 | 51 | 89 | 2.0 | 4.0 | 0.00 | 0.00 | 0.00 | 69 | 993.1 |
| 20260503231813 | 51 | 96 | 2.0 | 3.0 | 0.00 | 0.00 | 0.00 | 69 | 993.1 |
| 20260503231310 | 51 | 97 | 1.0 | 2.0 | 0.00 | 0.00 | 0.00 | 68 | 993.0 |
| 20260503230810 | 51 | 97 | 2.0 | 2.0 | 0.00 | 0.00 | 0.00 | 68 | 992.9 |
| 20260503230309 | 52 | 93 | 2.0 | 3.0 | 0.00 | 0.00 | 0.00 | 68 | 992.9 |
| 20260503225810 | 52 | 98 | 2.0 | 3.0 | 0.00 | 0.00 | 0.00 | 68 | 992.9 |
| 20260503225308 | 52 | 108 | 3.0 | 4.0 | 0.00 | 0.00 | 0.00 | 67 | 992.9 |
| 20260503224809 | 52 | 92 | 3.0 | 6.0 | 0.00 | 0.00 | 0.00 | 67 | 992.9 |
| 20260503224308 | 52 | 110 | 3.0 | 5.0 | 0.00 | 0.00 | 0.00 | 67 | 992.9 |
| 20260503223809 | 52 | 123 | 3.0 | 4.0 | 0.00 | 0.00 | 0.00 | 67 | 992.9 |
| 20260503222807 | 52 | 141 | 2.0 | 3.0 | 0.00 | 0.00 | 0.00 | 66 | 992.8 |
| 20260503221806 | 52 | 104 | 3.0 | 4.0 | 0.00 | 0.00 | 0.00 | 67 | 992.7 |
| 20260503220806 | 53 | 97 | 3.0 | 3.0 | 0.00 | 0.00 | 0.00 | 66 | 992.6 |
| 20260503220306 | 53 | 99 | 3.0 | 3.0 | 0.00 | 0.00 | 0.00 | 65 | 992.7 |
| 20260503215805 | 53 | 98 | 3.0 | 4.0 | 0.00 | 0.00 | 0.00 | 64 | 992.6 |
| 20260503215305 | 54 | 109 | 3.0 | 5.0 | 0.00 | 0.00 | 0.00 | 64 | 992.7 |
| 20260503214808 | 54 | 108 | 3.0 | 6.0 | 0.00 | 0.00 | 0.00 | 63 | 992.6 |
| 20260503214305 | 54 | 113 | 4.0 | 5.0 | 0.00 | 0.00 | 0.00 | 62 | 992.6 |
| 20260503213804 | 55 | 107 | 4.0 | 5.0 | 0.00 | 0.00 | 0.00 | 61 | 992.7 |
| 20260503213305 | 55 | 123 | 3.0 | 5.0 | 0.00 | 0.00 | 0.00 | 60 | 992.7 |
| 20260503212805 | 55 | 119 | 3.0 | 4.0 | 0.00 | 0.00 | 0.00 | 60 | 992.6 |
| 20260503212305 | 55 | 104 | 2.0 | 3.0 | 0.00 | 0.00 | 0.00 | 59 | 992.6 |
| 20260503211805 | 56 | 113 | 1.0 | 3.0 | 0.00 | 0.00 | 0.00 | 58 | 992.6 |
| 20260503210804 | 57 | 119 | 1.0 | 1.0 | 0.00 | 0.00 | 0.00 | 56 | 992.6 |
| 20260503210303 | 57 | 119 | 1.0 | 2.0 | 0.00 | 0.00 | 0.00 | 56 | 992.7 |
| 20260503205802 | 57 | 119 | 1.0 | 2.0 | 0.00 | 0.00 | 0.00 | 55 | 992.6 |
| 20260503204802 | 58 | 105 | 1.0 | 2.0 | 0.00 | 0.00 | 0.00 | 53 | 992.7 |
| 20260503204303 | 59 | 159 | 1.0 | 1.0 | 0.00 | 0.00 | 0.00 | 52 | 992.6 |
| 20260503203802 | 59 | 159 | 1.0 | 1.0 | 0.00 | 0.00 | 0.00 | 52 | 992.6 |
| 20260503202800 | 59 | 146 | 0.0 | 1.0 | 0.00 | 0.00 | 0.00 | 51 | 992.6 |
| 20260503202300 | 59 | 129 | 0.0 | 1.0 | 0.00 | 0.00 | 0.00 | 51 | 992.5 |
| 20260503201801 | 59 | 129 | 0.0 | 1.0 | 0.00 | 0.00 | 0.00 | 51 | 992.5 |
| 20260503201300 | 59 | 129 | 0.0 | 1.0 | 0.00 | 0.00 | 0.00 | 51 | 992.5 |
| 20260503200804 | 59 | 104 | 0.0 | 0.0 | 0.00 | 0.00 | 0.00 | 51 | 992.5 |
| 20260503200300 | 60 | 104 | 0.0 | 0.0 | 0.00 | 0.00 | 0.00 | 50 | 992.5 |
| 20260503195802 | 60 | 104 | 0.0 | 0.0 | 0.00 | 0.00 | 0.00 | 50 | 992.5 |
| 20260503195258 | 60 | 96 | 0.0 | 1.0 | 0.00 | 0.00 | 0.00 | 50 | 992.4 |
| 20260503194258 | 60 | 96 | 0.0 | 0.0 | 0.00 | 0.00 | 0.00 | 49 | 992.5 |
| 20260503193259 | 60 | 96 | 1.0 | 1.0 | 0.00 | 0.00 | 0.00 | 50 | 992.5 |
| 20260503192258 | 59 | 95 | 0.0 | 1.0 | 0.00 | 0.00 | 0.00 | 54 | 992.6 |
| 20260503191757 | 59 | 160 | 0.0 | 0.0 | 0.00 | 0.00 | 0.00 | 54 | 992.6 |
| 20260503191257 | 60 | 160 | 0.0 | 1.0 | 0.00 | 0.00 | 0.00 | 53 | 992.5 |
| 20260503190256 | 61 | 223 | 0.0 | 1.0 | 0.00 | 0.00 | 0.00 | 49 | 992.5 |
| 20260503185756 | 61 | 223 | 0.0 | 1.0 | 0.00 | 0.00 | 0.00 | 51 | 992.5 |
| 20260503185258 | 60 | 238 | 0.0 | 1.0 | 0.00 | 0.00 | 0.00 | 51 | 992.4 |
| 20260503184756 | 60 | 288 | 0.0 | 0.0 | 0.00 | 0.00 | 0.00 | 50 | 992.4 |
| 20260503183754 | 60 | 288 | 0.0 | 0.0 | 0.00 | 0.00 | 0.00 | 50 | 992.5 |
| 20260503183255 | 60 | 288 | 0.0 | 0.0 | 0.00 | 0.00 | 0.00 | 51 | 992.4 |
| 20260503182256 | 62 | 288 | 0.0 | 0.0 | 0.00 | 0.00 | 0.00 | 48 | 992.3 |
| 20260503181754 | 62 | 288 | 0.0 | 0.0 | 0.00 | 0.00 | 0.00 | 47 | 992.2 |
| 20260503180752 | 63 | 288 | 0.0 | 0.0 | 0.00 | 0.00 | 0.00 | 46 | 992.1 |
| 20260503180253 | 64 | 288 | 0.0 | 0.0 | 0.00 | 0.00 | 0.00 | 45 | 992.0 |
| 20260503174751 | 64 | 288 | 1.0 | 1.0 | 0.00 | 0.00 | 0.00 | 45 | 992.1 |
| 20260503174252 | 65 | 288 | 1.0 | 2.0 | 0.00 | 0.00 | 0.00 | 44 | 992.1 |
| 20260503173251 | 65 | 288 | 2.0 | 2.0 | 0.00 | 0.00 | 0.00 | 44 | 992.1 |
| 20260503172751 | 65 | 286 | 2.0 | 2.0 | 0.00 | 0.00 | 0.00 | 44 | 992.0 |
| 20260503172251 | 66 | 297 | 3.0 | 3.0 | 0.00 | 0.00 | 0.00 | 44 | 992.0 |
| 20260503171751 | 66 | 297 | 3.0 | 3.0 | 0.00 | 0.00 | 0.00 | 44 | 992.2 |
| 20260503170750 | 67 | 297 | 3.0 | 5.0 | 0.00 | 0.00 | 0.00 | 42 | 992.0 |